Location: Bannatyne
(13.0833°N, 59.5333°W)
Time: 15:24:27
(UTC+00:00)

deb Explorer IX - Pass Details

Date: 28 January 2020
Orbit: 549 x 1099 km, 38.8° (Epoch: 23 February)

Event Time Altitude Azimuth Distance (km) Brightness Sun altitude
Rises 19:45:15 0° 184° (S) 2,990 ? 28.6°
Reaches altitude 10° 19:49:56 10° 143° (SE) 2,236 ? 27.6°
Maximum altitude 19:50:48 10° 133° (SE) 2,240 ? 27.5°
Drops below altitude 10° 19:51:42 10° 123° (ESE) 2,298 ? 27.3°
Sets 19:56:57 0° 84° (E) 3,418 ? 26.1°
